Location: Buckeye Ditch
(40.9104°N, 122.9517°W)
Time: 19:15:16
(UTC+00:00)

Vanguard 1 - Pass Details

Date: 27 May 2025
Orbit: 649 x 3822 km, 34.3° (Epoch: 15 June)

Event Time Altitude Azimuth Distance (km) Brightness Sun altitude
Rises 06:37:35 0° 277° (W) 5,633 14.4 -24.2°
Reaches altitude 10° 06:44:22 10° 255° (WSW) 3,829 13.1 -24.7°
Maximum altitude 06:48:06 13° 231° (SW) 3,153 12.5 -25.0°
Enters shadow 06:49:09 13° 223° (SW) 3,053 12.3 -25.0°
